When you browse on this site, cookies collect data to enhance your experience and personalize the content and advertising you see.
Visit our Privacy Policy to learn more. By continuing to use the site, you agree to this use of cookies and data.
  • en Suisse
  • Liste des pays
  • À 7 jours
  • Température de l'eau
  • Carte météo
  • Widgets météo
  • user-avatar
    Se connecter

    Météo par heure à Szombathely

    Ce jour, 5 Avril, Dimanche

    Heure Température Précipitation Vent Pression Humidité
    00:00 +5°C° 0 mm 3 m/s 751 mmHg 69%
    01:00 +4°C° 0 mm 3 m/s 751 mmHg 69%
    02:00 +5°C° 0 mm 2 m/s 751 mmHg 70%
    03:00 +4°C° 0 mm 2 m/s 751 mmHg 71%
    04:00 +4°C° 0 mm 2 m/s 751 mmHg 72%
    05:00 +5°C° 0 mm 2 m/s 751 mmHg 70%
    06:00 +4°C° 0 mm 3 m/s 752 mmHg 68%
    07:00 +5°C° 0 mm 3 m/s 752 mmHg 65%
    08:00 +8°C° 0 mm 3 m/s 752 mmHg 58%
    09:00 +10°C° 0 mm 3 m/s 752 mmHg 51%
    10:00 +12°C° 0 mm 3 m/s 753 mmHg 44%
    11:00 +13°C° 0 mm 3 m/s 752 mmHg 42%
    12:00 +14°C° 0 mm 3 m/s 752 mmHg 41%
    13:00 +16°C° 0 mm 3 m/s 752 mmHg 40%
    14:00 +16°C° 0 mm 3 m/s 751 mmHg 41%
    15:00 +16°C° 0 mm 3 m/s 751 mmHg 42%
    16:00 +17°C° 0 mm 3 m/s 751 mmHg 43%
    17:00 +14°C° 0 mm 3 m/s 751 mmHg 51%
    18:00 +13°C° 0 mm 2 m/s 751 mmHg 59%
    19:00 +10°C° 0 mm 2 m/s 751 mmHg 67%
    20:00 +9°C° 0 mm 2 m/s 752 mmHg 70%
    21:00 +8°C° 0 mm 2 m/s 752 mmHg 74%
    22:00 +8°C° 0 mm 2 m/s 752 mmHg 77%
    23:00 +8°C° 0 mm 1 m/s 752 mmHg 79%

    Demain, 6 Avril, Lundi

    Heure Température Précipitation Vent Pression Humidité
    00:00 +8°C° 0 mm 1 m/s 752 mmHg 80%
    01:00 +7°C° 0 mm 1 m/s 752 mmHg 81%
    02:00 +7°C° 0 mm 1 m/s 752 mmHg 82%
    03:00 +7°C° 0 mm 1 m/s 752 mmHg 82%
    04:00 +7°C° 0 mm 1 m/s 752 mmHg 83%
    05:00 +7°C° 0 mm 1 m/s 753 mmHg 80%
    06:00 +7°C° 0 mm 2 m/s 753 mmHg 78%
    07:00 +8°C° 0 mm 2 m/s 753 mmHg 75%
    08:00 +10°C° 0 mm 3 m/s 753 mmHg 65%
    09:00 +12°C° 0 mm 4 m/s 754 mmHg 55%
    10:00 +14°C° 0 mm 5 m/s 754 mmHg 45%
    11:00 +14°C° 0 mm 5 m/s 754 mmHg 42%
    12:00 +15°C° 0 mm 5 m/s 754 mmHg 40%
    13:00 +16°C° 0 mm 5 m/s 753 mmHg 37%
    14:00 +15°C° 0 mm 5 m/s 753 mmHg 38%
    15:00 +15°C° 0 mm 5 m/s 753 mmHg 38%
    16:00 +15°C° 0 mm 5 m/s 753 mmHg 39%
    17:00 +13°C° 0 mm 4 m/s 753 mmHg 45%
    18:00 +11°C° 0 mm 4 m/s 753 mmHg 50%
    19:00 +9°C° 0 mm 3 m/s 754 mmHg 56%
    20:00 +8°C° 0 mm 2 m/s 754 mmHg 55%
    21:00 +8°C° 0 mm 2 m/s 755 mmHg 55%
    22:00 +7°C° 0 mm 2 m/s 755 mmHg 54%
    23:00 +6°C° 0 mm 2 m/s 755 mmHg 56%

    Après-demain, 7 Avril, Mardi

    Heure Température Précipitation Vent Pression Humidité
    00:00 +6°C° 0 mm 2 m/s 755 mmHg 58%
    01:00 +7°C° 0 mm 1 m/s 755 mmHg 59%
    02:00 +6°C° 0 mm 1 m/s 755 mmHg 61%
    03:00 +6°C° 0 mm 1 m/s 755 mmHg 62%
    04:00 +5°C° 0 mm 1 m/s 755 mmHg 64%
    05:00 +6°C° 0 mm 1 m/s 756 mmHg 62%
    06:00 +7°C° 0 mm 1 m/s 756 mmHg 60%
    07:00 +8°C° 0 mm 1 m/s 756 mmHg 58%
    08:00 +9°C° 0 mm 2 m/s 756 mmHg 50%
    09:00 +11°C° 0 mm 3 m/s 756 mmHg 42%
    10:00 +13°C° 0 mm 3 m/s 756 mmHg 33%
    11:00 +14°C° 0 mm 4 m/s 756 mmHg 31%
    12:00 +15°C° 0 mm 4 m/s 756 mmHg 29%
    13:00 +17°C° 0 mm 4 m/s 755 mmHg 27%
    14:00 +17°C° 0 mm 4 m/s 755 mmHg 29%
    15:00 +17°C° 0 mm 4 m/s 755 mmHg 31%
    16:00 +17°C° 0 mm 3 m/s 754 mmHg 33%
    17:00 +14°C° 0 mm 3 m/s 754 mmHg 40%
    18:00 +13°C° 0 mm 2 m/s 755 mmHg 46%
    19:00 +10°C° 0 mm 2 m/s 755 mmHg 53%
    20:00 +9°C° 0 mm 2 m/s 755 mmHg 55%
    21:00 +8°C° 0 mm 2 m/s 755 mmHg 56%
    22:00 +8°C° 0 mm 2 m/s 755 mmHg 58%
    23:00 +7°C° 0 mm 2 m/s 755 mmHg 59%

    8 Avril, Mercredi

    Heure Température Précipitation Vent Pression Humidité
    00:00 +7°C° 0 mm 2 m/s 755 mmHg 59%
    01:00 +6°C° 0 mm 2 m/s 755 mmHg 60%
    02:00 +6°C° 0 mm 2 m/s 755 mmHg 61%
    03:00 +7°C° 0 mm 1 m/s 755 mmHg 62%
    04:00 +6°C° 0 mm 1 m/s 755 mmHg 64%
    05:00 +7°C° 0 mm 1 m/s 755 mmHg 62%
    06:00 +8°C° 0 mm 1 m/s 755 mmHg 60%
    07:00 +9°C° 0 mm 1 m/s 755 mmHg 58%
    08:00 +10°C° 0 mm 2 m/s 754 mmHg 52%
    09:00 +14°C° 0 mm 2 m/s 754 mmHg 46%
    10:00 +16°C° 0 mm 3 m/s 754 mmHg 39%
    11:00 +17°C° 0 mm 3 m/s 753 mmHg 37%
    12:00 +17°C° 0 mm 3 m/s 753 mmHg 35%
    13:00 +18°C° 0 mm 3 m/s 752 mmHg 33%
    14:00 +18°C° 0 mm 3 m/s 752 mmHg 34%
    15:00 +18°C° 0 mm 3 m/s 751 mmHg 34%
    16:00 +18°C° 0 mm 3 m/s 750 mmHg 35%
    17:00 +16°C° 0 mm 2 m/s 750 mmHg 41%
    18:00 +14°C° 0 mm 2 m/s 750 mmHg 46%
    19:00 +12°C° 0 mm 2 m/s 750 mmHg 52%
    20:00 +10°C° 0 mm 2 m/s 750 mmHg 54%
    21:00 +9°C° 0 mm 2 m/s 750 mmHg 57%
    22:00 +9°C° 0 mm 2 m/s 750 mmHg 59%
    23:00 +8°C° 0 mm 2 m/s 750 mmHg 61%

    9 Avril, Jeudi

    Heure Température Précipitation Vent Pression Humidité
    00:00 +8°C° 0 mm 2 m/s 750 mmHg 62%
    01:00 +7°C° 0 mm 2 m/s 750 mmHg 64%
    02:00 +7°C° 0 mm 2 m/s 750 mmHg 65%
    03:00 +7°C° 0 mm 2 m/s 749 mmHg 66%
    04:00 +6°C° 0 mm 2 m/s 749 mmHg 68%
    05:00 +7°C° 0 mm 2 m/s 749 mmHg 66%
    06:00 +8°C° 0 mm 2 m/s 749 mmHg 64%
    07:00 +9°C° 0 mm 2 m/s 749 mmHg 62%
    08:00 +12°C° 0 mm 2 m/s 749 mmHg 54%
    09:00 +15°C° 0 mm 2 m/s 749 mmHg 46%
    10:00 +17°C° 0 mm 2 m/s 749 mmHg 38%
    11:00 +18°C° 0 mm 2 m/s 749 mmHg 35%
    12:00 +19°C° 0 mm 2 m/s 748 mmHg 33%
    13:00 +21°C° 0 mm 1 m/s 748 mmHg 30%
    14:00 +21°C° 0 mm 1 m/s 748 mmHg 31%
    15:00 +21°C° 0 mm 1 m/s 747 mmHg 31%
    16:00 +21°C° 0 mm 1 m/s 747 mmHg 32%
    17:00 +19°C° 0 mm 1 m/s 747 mmHg 39%
    18:00 +16°C° 0 mm 1 m/s 747 mmHg 46%
    19:00 +12°C° 0 mm 0 m/s 747 mmHg 52%
    20:00 +13°C° 0 mm 1 m/s 747 mmHg 54%
    21:00 +12°C° 0 mm 1 m/s 748 mmHg 55%
    22:00 +12°C° 0 mm 2 m/s 748 mmHg 56%
    23:00 +12°C° 0 mm 2 m/s 748 mmHg 58%

    10 Avril, Vendredi

    Heure Température Précipitation Vent Pression Humidité
    00:00 +10°C° 0 mm 2 m/s 748 mmHg 59%
    01:00 +10°C° 0 mm 2 m/s 748 mmHg 61%
    02:00 +10°C° 0 mm 2 m/s 748 mmHg 61%
    03:00 +9°C° 0 mm 2 m/s 748 mmHg 62%
    04:00 +9°C° 0 mm 3 m/s 748 mmHg 63%
    05:00 +10°C° 0 mm 3 m/s 749 mmHg 65%
    06:00 +11°C° 0 mm 4 m/s 749 mmHg 67%
    07:00 +12°C° 0 mm 5 m/s 749 mmHg 70%
    08:00 +13°C° 0 mm 5 m/s 749 mmHg 65%
    09:00 +14°C° 0 mm 6 m/s 749 mmHg 61%
    10:00 +16°C° 0 mm 6 m/s 749 mmHg 57%
    11:00 +16°C° 0 mm 6 m/s 749 mmHg 55%
    12:00 +16°C° 0 mm 6 m/s 749 mmHg 52%
    13:00 +17°C° 0 mm 6 m/s 749 mmHg 50%
    14:00 +17°C° 0 mm 5 m/s 748 mmHg 48%
    15:00 +16°C° 0 mm 5 m/s 748 mmHg 46%
    16:00 +16°C° 0 mm 5 m/s 748 mmHg 44%
    17:00 +14°C° 0 mm 4 m/s 748 mmHg 51%
    18:00 +12°C° 0 mm 3 m/s 748 mmHg 57%
    19:00 +10°C° 0 mm 2 m/s 748 mmHg 64%
    20:00 +10°C° 0 mm 1 m/s 748 mmHg 65%
    21:00 +10°C° 0 mm 1 m/s 748 mmHg 66%
    22:00 +9°C° 0 mm 1 m/s 749 mmHg 67%
    23:00 +8°C° 0 mm 1 m/s 749 mmHg 67%
    Voir plus